Terug naar catalogus

STARLINK-11747

ActiefCommunicatieVLEO
NORAD 64322·PAYLOAD·🇺🇸 United States

Gelanceerd Jun 10, 2025 vanaf Cape Canaveral Space Force Station

Loading…

Volgende Passages (komende 24 uur)

TLE

VersSource: CelesTrak SupGP

Epoch: Sep 15, 2026, 03:47 UTC

1 64322C 25124F   26258.15812500  .00057046  00000+0  44328-3 0  2589
2 64322  42.9998 327.2271 0001489 261.6076  43.8000 15.70799104    13

Volg STARLINK-11747 in realtime met AllMySat

Download on the App Store